Theta_e
296 297 297 297 297 297 296 297 296 296 295 294 292 292 291 292 293 294 296 296 296 296 295 295 296 296 296 297 299 300 300 301 303 301 301 302 304 306 307 316 325 325 326
294 296 295 295 295 295 296 296 296 295 294 293 292 291 290 291 292 293 294 295 295 296 295 294 294 295 295 296 296 297 297 299 301 303 299 295 296 302 305 309 320 323 325
294 294 294 294 294 294 294 295 295 294 293 292 292 291 291 290 290 291 292 293 294 294 294 293 293 293 294 293 294 295 295 294 297 301 302 295 292 297 302 308 312 320 322
295 295 294 293 294 294 294 294 294 293 293 291 290 288 287 286 288 289 290 291 292 292 293 293 293 292 293 292 293 295 294 294 293 296 300 304 300 296 295 297 300 306 317
295 294 294 294 294 294 292 292 292 292 291 290 289 287 286 287 288 288 288 289 290 291 292 293 293 292 292 292 292 292 294 294 293 293 295 296 299 300 296 294 298 295 301
294 293 294 294 293 293 292 291 291 290 290 289 288 287 286 286 286 286 286 287 288 289 289 290 291 291 291 291 291 291 292 292 293 294 295 295 294 297 298 296 295 297 302
292 291 290 290 291 292 291 290 290 289 289 288 288 287 287 286 285 285 287 286 286 287 287 288 289 289 290 290 291 291 291 291 291 291 292 295 296 298 299 299 297 293 296
292 291 290 290 291 291 290 289 288 288 288 287 287 287 287 286 286 285 286 286 286 286 287 288 288 289 289 290 290 290 290 291 291 290 291 292 294 296 297 298 297 293 290
292 291 290 290 290 290 289 288 287 287 287 287 287 286 286 285 285 285 287 286 286 286 286 286 286 287 288 288 288 288 289 290 290 291 291 291 292 293 295 295 296 298 293
292 291 289 289 289 289 288 288 287 286 286 287 286 286 286 286 286 285 284 285 285 285 285 285 286 286 286 287 287 287 288 288 289 290 290 290 291 291 293 294 295 296 298
290 289 288 289 289 289 287 287 286 285 285 286 286 285 285 285 285 284 284 284 284 284 284 284 284 285 285 286 286 286 287 287 288 288 289 289 290 290 291 293 294 295 296
290 290 288 288 288 287 287 285 284 284 285 285 285 285 285 284 283 282 284 284 283 284 284 284 284 285 285 286 286 285 286 286 286 286 288 288 289 288 288 289 291 294 296
288 288 287 286 286 286 285 284 284 283 284 284 283 283 282 281 279 279 283 283 283 283 283 284 284 284 284 285 285 286 286 286 286 287 288 287 288 287 288 288 289 292 293
286 286 286 285 286 283 281 282 283 283 282 282 281 280 279 280 279 279 281 283 283 283 284 284 284 284 284 285 285 285 285 285 286 287 287 287 287 287 287 288 289 290 292
285 283 283 283 282 281 279 278 278 280 280 277 275 275 277 277 277 276 281 283 284 284 284 283 284 285 285 285 286 287 287 285 285 286 286 287 287 288 288 289 290 291 288
282 282 282 285 284 282 279 276 273 273 276 273 272 273 273 275 275 275 281 283 284 284 283 283 283 284 285 288 289 289 285 285 285 285 286 287 286 287 289 290 291 291 288
284 282 282 282 282 281 280 276 273 272 271 270 271 271 270 271 272 274 283 283 282 283 283 282 282 284 285 288 288 286 285 285 285 285 286 286 286 286 287 290 291 291 292
283 283 281 280 280 278 276 273 271 270 269 269 271 270 268 268 271 271 277 283 283 283 283 282 281 281 285 287 287 285 282 283 284 284 285 285 286 287 286 287 285 284 285
282 282 280 277 278 278 274 273 269 268 269 270 272 270 267 268 268 270 270 273 281 280 281 281 280 280 282 287 286 284 283 283 283 284 285 285 284 286 290 285 284 283 284
274 276 276 273 278 274 274 273 272 272 272 272 273 269 267 267 268 270 271 271 273 276 279 279 275 279 280 285 286 284 282 281 282 283 284 286 286 287 286 283 282 280 280
277 274 274 279 278 274 274 273 272 274 274 273 271 269 268 270 271 274 274 274 273 274 273 276 275 274 276 279 284 285 280 280 280 281 281 283 285 285 285 283 280 279 279
275 275 276 276 273 274 276 274 275 276 275 275 273 271 271 274 275 275 277 276 276 276 274 274 275 276 276 280 281 282 283 281 277 277 278 281 284 284 283 281 282 281 278
281 278 278 278 276 275 278 278 278 276 275 275 273 271 273 276 277 276 277 277 277 275 275 276 274 275 276 276 280 280 280 279 276 278 280 280 279 279 279 280 279 277 275
281 279 278 279 279 278 279 280 278 278 276 274 273 273 274 276 276 278 278 276 273 273 275 274 273 273 274 275 276 276 274 276 275 275 273 277 277 277 275 273 273 271 271
280 278 278 279 280 280 279 279 279 277 276 275 274 275 275 274 276 277 275 276 276 276 271 270 271 269 269 275 280 278 273 270 275 266 266 268 268 268 268 269 268 270 270
279 277 278 278 280 279 280 279 279 279 278 276 275 274 275 274 274 275 273 281 282 282 282 282 278 275 281 282 281 281 281 280 279 266 262 265 265 265 263 263 264 265 266
Wind_Speed
10 9 7 7 7 6 4 5 2 3 3 2 3 2 3 4 4 4 6 6 5 5 5 5 6 7 7 7 7 7 8 6 4 4 5 8 12 13 12 10 14 18 16
10 9 8 8 6 6 5 4 3 4 3 3 2 2 3 4 4 5 6 7 6 6 6 5 5 7 7 8 7 6 6 6 4 7 3 6 5 10 11 10 10 17 15
13 11 9 8 7 6 5 3 3 3 3 2 2 3 3 4 3 4 4 4 6 6 6 6 7 8 7 7 8 7 7 7 5 7 7 3 5 4 2 11 13 14 16
11 11 9 8 7 6 5 2 3 2 1 2 2 3 3 6 4 6 4 6 6 6 6 8 9 8 7 8 7 7 6 7 8 5 8 10 6 2 6 3 5 5 12
11 10 10 9 7 7 4 2 2 0 2 3 3 3 5 4 5 5 7 8 7 8 8 9 10 10 10 11 12 11 10 8 8 8 6 9 8 9 10 14 10 3 5
10 9 8 8 6 7 4 2 1 1 3 3 4 4 6 6 7 8 8 7 8 9 11 11 10 10 10 11 11 12 12 10 10 9 9 9 8 9 9 11 11 13 10
10 9 9 7 7 7 5 3 2 1 3 4 4 5 6 6 7 8 8 10 8 8 9 11 10 9 10 11 11 11 12 12 11 11 10 10 11 10 12 12 9 8 5
9 9 9 8 8 7 5 3 1 2 3 4 5 5 6 3 4 6 8 8 9 9 11 11 12 12 12 12 12 10 11 12 12 15 12 11 10 10 9 10 11 8 3
10 10 9 8 7 6 5 4 1 0 2 3 3 4 5 5 6 9 10 8 10 10 13 13 13 13 13 13 13 11 13 13 14 13 13 12 10 11 10 12 11 10 12
9 9 8 8 7 6 5 4 2 1 2 3 3 4 5 6 6 7 9 11 11 11 12 12 13 13 13 14 14 12 13 14 13 12 15 13 10 10 10 11 12 13 10
9 8 8 8 8 6 6 4 3 2 3 3 4 5 5 6 6 7 9 10 12 12 12 12 12 13 13 13 13 14 15 16 14 13 16 16 14 10 8 9 11 12 12
7 7 9 9 8 7 5 4 2 0 2 3 4 5 6 6 7 8 10 10 11 11 11 12 13 13 13 13 13 15 14 15 15 15 16 15 12 13 11 9 13 14 8
6 5 8 8 7 7 6 5 3 2 1 2 4 5 6 6 6 6 9 9 9 10 11 11 11 12 12 13 13 14 15 15 14 15 13 13 15 15 10 14 12 10 12
7 5 7 7 7 6 5 5 4 2 1 3 4 5 5 6 7 7 8 9 9 9 9 10 10 11 12 12 13 12 13 12 11 12 12 12 12 13 13 9 12 13 8
6 6 6 6 6 6 5 4 3 3 1 1 3 5 6 6 6 6 7 9 9 8 8 10 11 11 10 8 12 13 11 8 8 10 10 10 11 16 12 8 10 11 2
8 8 7 7 8 8 7 6 5 4 2 1 5 5 4 6 6 6 7 8 9 8 9 11 12 11 8 21 22 17 2 5 6 8 9 10 10 13 17 16 17 11 4
9 8 10 10 9 9 8 8 6 3 3 3 4 4 3 6 6 6 7 8 10 8 9 12 13 12 11 22 21 20 5 3 5 7 8 7 7 9 11 14 19 17 15
8 8 7 7 7 6 5 5 4 4 4 3 5 4 2 4 5 4 5 7 8 8 8 10 12 13 11 22 19 17 8 6 5 5 6 8 8 8 9 9 3 2 0
7 6 6 6 6 8 7 6 4 5 4 5 5 5 1 4 4 5 4 4 5 5 6 7 10 13 13 24 21 14 8 8 9 9 9 7 4 4 12 7 7 6 6
3 5 5 4 7 6 8 7 7 6 7 6 6 5 2 2 4 6 4 3 3 4 5 6 4 8 11 22 24 16 7 9 8 10 11 17 12 12 10 6 6 9 6
7 4 4 9 8 8 8 8 6 11 6 5 5 4 3 3 3 5 3 3 4 4 5 6 6 5 8 12 23 23 10 8 7 8 9 9 20 20 21 17 8 7 7
3 5 6 6 5 7 9 7 10 7 6 6 5 4 4 2 0 3 4 3 3 4 5 5 5 5 6 15 18 20 20 16 8 9 8 9 21 21 21 14 19 18 12
6 5 7 6 6 8 10 10 9 7 6 6 6 4 4 3 3 2 2 3 3 2 3 3 4 5 6 5 16 17 16 16 8 7 12 16 17 18 16 21 20 12 7
5 5 7 7 9 10 13 14 7 8 8 8 6 5 6 5 4 2 1 1 1 2 2 2 3 3 3 4 5 5 5 9 7 9 5 12 14 18 13 9 11 8 7
3 5 7 8 12 10 13 12 9 9 8 8 7 6 5 4 4 3 4 2 2 3 2 2 1 1 3 4 9 7 4 3 6 4 4 6 7 8 7 7 7 6 6
3 4 8 8 10 9 11 10 12 13 11 9 7 7 6 4 4 4 1 2 4 2 1 2 1 2 1 5 9 11 13 10 9 5 4 4 4 5 3 4 4 5 5
Wind_Direction
149 141 143 131 131 132 135 101 79 51 40 359 342 335 308 319 309 298 310 313 301 300 299 294 290 285 283 282 280 281 275 274 246 255 274 261 248 246 246 264 231 216 218
138 146 152 153 166 150 146 111 80 49 29 31 342 282 309 283 287 287 277 265 264 265 272 278 294 301 299 293 287 283 284 282 257 262 227 289 302 237 231 226 236 228 213
154 155 167 168 163 170 114 94 71 47 35 17 318 310 301 303 310 309 315 313 313 307 301 293 287 289 287 284 285 289 285 282 274 267 243 265 243 318 212 225 223 233 234
147 154 172 170 161 131 113 115 70 33 341 358 338 323 297 305 303 307 301 313 304 292 285 287 287 284 281 279 281 276 270 276 277 279 273 261 268 307 321 339 299 277 228
147 160 166 164 134 125 133 154 107 342 9 354 354 324 303 295 307 305 310 312 312 308 308 299 290 284 280 280 283 284 284 274 274 273 277 272 270 250 251 268 281 312 262
148 142 145 129 144 137 171 153 128 347 22 360 341 327 314 319 318 312 309 307 307 303 298 296 291 287 282 278 276 275 276 275 272 274 270 265 256 259 238 249 257 261 280
153 163 152 153 187 158 154 191 159 325 12 353 341 346 328 313 305 307 306 306 299 293 292 292 286 283 280 278 274 268 265 264 262 266 268 266 266 269 267 275 252 242 254
165 168 174 167 155 154 175 186 75 13 359 352 345 329 312 302 302 299 298 294 290 289 291 287 286 283 280 274 266 264 262 263 255 252 254 262 264 264 275 271 277 271 265
168 166 156 148 151 171 181 176 174 52 356 347 329 316 313 310 295 294 294 296 293 295 296 297 292 288 282 276 272 265 255 256 256 252 249 248 251 255 264 263 274 272 255
165 166 158 155 157 168 175 172 143 63 8 336 327 323 311 298 297 305 303 303 306 305 300 293 287 284 278 274 272 268 262 261 249 248 251 250 246 245 253 256 260 259 274
179 168 159 158 160 167 177 163 88 30 331 334 335 331 311 307 315 310 311 307 306 301 297 296 293 287 280 275 268 262 263 257 255 254 251 249 253 248 257 267 254 257 254
162 168 162 156 162 180 172 150 148 245 301 336 345 325 312 312 304 303 305 309 306 304 296 291 287 283 280 276 269 265 261 257 251 252 242 244 250 245 246 246 271 251 268
172 161 150 167 172 181 172 165 178 224 313 357 353 318 304 300 292 289 308 313 311 302 295 295 296 299 293 286 277 270 263 254 246 256 236 237 248 249 249 247 242 268 234
206 197 182 180 181 166 164 171 191 199 248 18 334 305 291 294 294 296 307 312 301 303 309 315 308 300 298 286 281 270 262 250 243 246 239 244 246 249 248 259 231 247 250
226 202 192 186 171 171 176 175 192 210 184 70 291 278 279 286 291 301 318 307 305 314 326 326 319 319 305 304 305 294 256 241 243 252 252 243 241 244 245 251 257 252 210
232 218 200 185 194 192 192 187 198 212 166 205 260 274 304 301 313 317 317 319 320 322 346 341 330 329 331 342 347 345 156 228 239 250 249 247 235 241 243 255 268 264 244
218 213 204 198 196 193 180 190 191 179 189 221 267 278 316 319 325 320 322 341 336 334 354 357 343 343 342 2 4 8 353 281 262 256 251 241 234 238 248 236 241 251 250
224 224 203 189 186 170 161 138 146 199 190 233 257 264 342 310 312 320 314 342 346 352 356 358 352 347 354 9 13 13 0 360 350 324 293 256 242 228 229 239 179 124 343
221 212 185 169 157 167 158 151 182 213 183 227 237 242 151 297 305 314 305 302 325 328 347 359 359 356 350 16 21 17 5 9 12 10 12 1 2 313 222 146 123 92 51
194 194 168 147 158 174 155 161 203 215 211 215 219 228 180 266 295 287 296 276 299 302 326 333 335 357 358 10 23 24 11 19 16 25 26 31 38 50 59 72 100 93 63
190 169 169 185 188 154 158 186 199 224 204 186 178 224 209 235 248 294 290 302 311 335 346 344 337 348 352 6 24 30 20 16 17 27 31 38 60 65 67 66 60 71 81
210 186 177 203 185 165 169 191 216 219 177 179 179 220 222 221 323 293 304 325 346 0 348 347 349 356 356 13 21 26 31 32 31 28 20 31 56 64 68 69 75 73 64
211 184 196 198 190 188 189 203 226 180 180 176 196 193 215 208 212 194 304 326 349 24 352 356 354 349 354 356 23 27 30 36 39 35 51 55 53 53 53 58 57 50 55
214 179 182 211 213 200 205 219 183 177 178 189 197 195 197 197 191 240 206 156 23 356 10 9 355 333 347 350 357 11 2 14 28 21 8 51 58 59 53 50 48 49 57
209 170 196 219 229 198 210 207 191 166 189 198 183 198 199 201 193 180 177 193 236 165 180 243 231 38 346 354 14 13 355 355 28 32 23 33 28 35 32 39 38 42 53
226 206 220 224 236 206 215 202 193 181 183 197 197 189 183 190 190 180 212 226 176 221 271 350 112 276 309 20 16 17 23 30 40 40 32 28 36 55 35 49 52 46 49